Location: *
(36.6333°N, 127.4833°E)
Time: 05:33:25
(UTC+00:00)

Daily predictions for brighter satellites

Satellite Brightness Start Highest point End
(mag) Time Altitude Azimuth Time Altitude Azimuth Time Altitude Azimuth
Cosmos 2315 Rocket 4.3 10:15:03 10° S 10:21:22 81° W 10:27:47 10° N
Cosmos 1626 Rocket 3.5 10:17:28 10° N 10:21:51 86° E 10:26:09 10° S
STARLINK-60 3.7 10:18:49 10° WSW 10:22:02 58° NW 10:25:16 10° NE
STARLINK-1073 4.2 10:19:17 10° NW 10:23:21 56° SW 10:27:23 10° SSE
Cosmos 1709 Rocket 4.2 10:20:36 10° N 10:26:45 80° W 10:32:50 10° S
Cosmos 1943 Rocket 2.2 10:21:38 10° NNW 10:27:14 88° ENE 10:32:49 10° SSE
STARLINK-1121 4.4 10:24:17 10° WNW 10:28:18 50° SW 10:32:17 10° SSE
CZ-2D R/B 3.9 10:25:11 10° S 10:28:57 61° W 10:32:42 10° NNW
ATLAS 5 CENTAUR R/B 3.8 10:26:28 10° S 10:29:32 15° SE 10:34:56 10° ESE
H-2A R/B 2.7 10:24:54 10° SE 10:29:35 35° ENE 10:34:10 10° N
CSL-04 Debris 4.4 10:26:12 10° S 10:31:40 77° WSW 10:37:09 10° NNW
Cosmos 1602 Rocket 3.6 10:29:16 10° N 10:33:41 89° ENE 10:38:03 10° S
CZ-2C R/B 3.6 10:31:51 10° SE 10:36:15 34° ENE 10:40:33 10° N
Cosmos 1626 4.2 10:33:39 10° NNW 10:36:57 31° W 10:40:14 10° SSW
Cosmos 1726 Rocket 4.3 10:33:25 10° SSE 10:37:18 32° E 10:41:15 10° NNE
Meteor 1-21 Rocket 4.2 10:31:58 10° N 10:37:29 67° E 10:43:00 10° SSE
Cosmos 2369 Rocket 2.2 10:33:37 10° NNW 10:39:19 83° ENE 10:44:57 10° SSE
ISS -2.7 10:36:46 10° WNW 10:39:59 43° SW 10:43:11 10° SSE
Cosmos 2074 Rocket 4.2 10:37:59 10° N 10:44:07 53° E 10:50:15 10° SSE
SeaSat 1 3.7 10:41:10 10° NNE 10:45:53 46° WNW 10:50:34 10° SW
Ariane Rocket 3.1 10:41:43 10° SSE 10:46:41 59° ENE 10:51:39 10° N
Resurs 01 Rocket 3.6 10:46:32 10° E 10:47:39 11° ENE 10:48:56 10° NE
Cosmos 1140 Rocket 4.0 10:43:26 10° SSE 10:48:09 36° E 10:52:50 10° NE
FALCON 9 DEB 3.1 10:45:14 10° SW 10:48:43 89° SSE 10:52:13 10° NE
Cosmos 1825 Rocket 3.8 10:45:38 10° N 10:49:51 47° E 10:54:02 10° SSE
SJ-6B 3.7 10:46:49 11° SE 10:50:18 32° ENE 10:54:01 10° N
Cosmos 2228 3.0 10:49:10 10° S 10:53:22 60° E 10:57:38 10° NNE
Cosmos 1437 2.4 10:52:42 10° N 10:55:43 70° E 10:58:42 10° SSE
SJ-11-01 4.3 10:51:34 10° SSE 10:56:15 89° ENE 11:01:01 10° NNW
Cosmos 1190 Rocket 4.1 10:51:47 10° S 10:56:54 52° ESE 11:02:02 10° NNE
STARLINK-52 3.2 10:55:29 10° SW 10:58:40 70° NW 11:01:52 10° NE
Cosmos 614 Rocket 3.9 10:53:46 10° SSW 10:58:59 82° ESE 11:04:13 10° NNE
Cosmos 1943 4.4 10:54:21 10° SW 10:59:47 47° WNW 11:05:16 10° N
IRIDIUM 104 4.3 10:54:44 10° N 10:59:58 84° E 11:05:11 10° S
GPS 2-04 Rocket1 4.3 10:58:33 10° SSW 11:01:22 18° SSE 11:01:58 18° SE
Cosmos 1758 Rocket 3.4 10:59:38 10° N 11:03:58 86° ENE 11:08:16 10° S
Cosmos 1300 4.3 11:06:06 18° ENE 11:06:06 18° ENE 11:08:09 10° NE
Cosmos 2263 4.2 10:59:58 10° NNW 11:05:35 83° WSW 11:11:11 10° SSE
Cosmos 1606 Rocket 3.6 11:02:50 10° S 11:07:15 85° W 11:11:44 10° N
IRIDIUM 114 4.4 11:03:53 10° N 11:09:07 79° W 11:14:19 10° S
Cosmos 1656 Rocket 3.6 11:03:33 10° NNW 11:09:11 68° ENE 11:13:37 16° SSE
CZ-3 Stage 3 4.2 11:03:57 10° WSW 11:10:31 66° SSE 11:52:00 10° E
FREGAT/IRIS 2.2 11:09:53 20° S 11:11:35 87° WSW 11:14:18 10° NNW
Cosmos 1953 Rocket 3.7 11:07:37 10° N 11:12:03 57° E 11:15:24 17° SSE
DMSP B5D2-2 4.4 11:07:11 10° NNE 11:12:07 41° E 11:17:03 10° S
Hubble Space Telescope 2.2 11:09:51 10° SW 11:13:03 22° S 11:13:50 20° SSE
SL-4 R/B 4.4 11:12:03 10° WNW 11:14:01 14° NNW 11:16:00 10° NNE
APEX 4.5 11:08:29 10° NNW 11:14:29 47° ENE 11:17:08 26° ESE
BREEZE-M DEB (TANK) 4.0 11:09:19 10° WNW 11:15:05 29° WSW 11:17:14 13° S
SL-24 R/B 3.7 11:11:35 10° NNE 11:15:24 55° E 11:18:59 10° S
Cosmos 1340 Rocket 2.8 11:12:19 10° S 11:16:19 61° E 11:20:18 10° NNE
IRS-1A Rocket 4.4 11:10:42 10° S 11:16:23 79° WSW 11:22:14 10° NNW
CZ-2C R/B 2.9 11:13:27 10° NNE 11:18:19 40° E 11:22:55 11° SSE
ARGOS 3.1 11:13:13 10° SSE 11:18:37 85° ENE 11:24:01 10° NNW
Cosmos 2327 Rocket 4.5 11:14:30 10° N 11:20:52 73° E 11:27:16 10° SSE
Cosmos 1703 3.2 11:18:02 10° N 11:22:01 86° E 11:24:49 19° S
Meteor 1-11 4.3 11:16:28 10° N 11:22:08 60° E 11:26:05 20° SSE
NOSS 3-4 (A) 4.1 11:16:16 10° NNW 11:23:19 58° NE 11:27:51 26° SE
NOSS 3-4 (C) 4.1 11:16:23 10° NNW 11:23:25 58° NE 11:27:56 26° ESE
Cosmos 407 Rocket 3.7 11:18:45 10° SSW 11:23:53 71° WNW 11:29:00 10° NNE
Cosmos 1328 3.7 11:20:40 10° N 11:24:41 88° E 11:27:23 20° S
Cosmos 1908 3.7 11:21:31 10° SSW 11:25:18 60° W 11:29:09 10° N
USA 186 2.5 11:22:30 13° S 11:25:24 54° W 11:28:35 10° NNW
Cosmos 676 Rocket 4.0 11:20:38 10° S 11:25:48 57° ESE 11:30:58 10° NNE
SL-8 R/B 4.2 11:23:43 10° WNW 11:28:21 52° SW 11:30:37 27° SSE
GEOS 3 Rocket 3.9 11:26:03 18° SSE 11:29:53 62° WSW 11:35:02 10° NW
COSMOS 2455 3.6 11:26:22 10° N 11:31:52 36° NE 11:33:42 30° E
SPOT 3 Rocket 3.5 11:30:23 27° SSE 11:33:14 67° ENE 11:38:24 10° N
Cosmos 546 4.4 11:37:14 10° NW 11:41:07 79° NE 11:41:27 70° E
Cosmos 2341 Rocket 4.2 11:35:54 10° N 11:42:08 52° E 11:44:24 36° SE
Cosmos 1954 Rocket 3.9 11:43:07 10° SSW 11:48:23 90° ESE 11:53:38 10° NNE
CZ-2C R/B 4.4 11:45:50 10° N 11:50:23 55° WNW 11:54:51 10° SSW
USA 234 3.2 11:44:06 10° NE 11:50:35 64° SE 11:57:04 10° SSW
Resurs 1-3 3.4 11:51:09 61° SSE 11:51:53 84° ENE 11:56:17 10° N
ATLAS 5 CENTAUR R/B 3.5 11:49:57 10° WSW 11:53:33 29° NW 11:57:29 10° NNE
SL-08 RB Rocket 4.4 11:52:15 22° SSW 11:54:58 52° W 11:59:27 10° NNW
